Weather History for Las Cruces, NM

Change the Weather History Date:

Monday, December 3, 2012

  Actual Average Record
Temperature  
Mean Temperature 56 °F -  
Max Temperature 71 °F 55 °F 71 °F (2005)
Min Temperature 40 °F 32 °F 26 °F (2006)
Degree Days  
Heating Degree Days 10    
Growing Degree Days 6 (Base 50)    
Moisture  
Dew Point 25 °F    
Average Humidity 30    
Maximum Humidity 51    
Minimum Humidity 19    
Precipitation  
Precipitation 0.04 in - - ()
Sea Level Pressure  
Sea Level Pressure 30.11 in    
Wind  
Wind Speed 13 mph (West)    
Max Wind Speed 23 mph    
Max Gust Speed 29 mph    
Visibility 10 miles    
Events Thunderstorm    
Averages and records for this station are not official NWS values.
T = Trace of Precipitation, MM = Missing Value Source: NWS Daily Summary

Daily Weather History Graph

Daily Weather History Graph

Search for Another Location

Airport:

Trip Planner

Search our weather history database for the weather conditions in past years. The results will help you decide how hot, cold, wet, or windy it might be!

Date:

Astronomy

Dec. 03, 2012 Rise Set
Actual Time 6:53 AM MST 5:02 PM MST
Civil Twilight 6:26 AM MST 5:29 PM MST
Nautical Twilight 5:55 AM MST 5:59 PM MST
Astronomical Twilight 5:26 AM MST 6:29 PM MST
Moon 9:42 PM MST (12/3) 10:25 AM MST (12/3)
Length of Visible Light 11h 02m
Length of Day
10h 09m
Waning Gibbous, 77% of the Moon is Illuminated
Dec 3
Waning Gibbous
Dec 6
Last Quarter
Dec 13
New
Dec 19
First Quarter
Dec 28
Full

Hourly Weather History & Observations

Time (MST) Temp. Windchill Dew Point Humidity Pressure Visibility Wind Dir Wind Speed Gust Speed Precip Events Conditions
12:15 AM 49.6 °F - 16.5 °F 27% 30.11 in 10.0 mi West 10.4 mph - N/A   Clear
12:35 AM 48.6 °F - 16.7 °F 28% 30.10 in 10.0 mi WSW 10.4 mph - N/A   Clear
12:55 AM 48.4 °F - 17.2 °F 29% 30.09 in 10.0 mi West 18.4 mph - N/A   Clear
1:15 AM 50.4 °F - 17.1 °F 27% 30.09 in 10.0 mi WSW 16.1 mph - N/A   Clear
1:35 AM 48.2 °F - 16.7 °F 29% 30.09 in 10.0 mi WSW 13.8 mph - N/A   Clear
1:55 AM 47.7 °F - 16.7 °F 29% 30.09 in 10.0 mi West 11.5 mph - N/A   Clear
2:15 AM 47.3 °F - 16.7 °F 30% 30.09 in 10.0 mi WSW 10.4 mph - N/A   Clear
2:35 AM 46.6 °F - 16.5 °F 30% 30.09 in 10.0 mi West 6.9 mph - N/A   Clear
2:55 AM 46.9 °F - 16.7 °F 30% 30.09 in 10.0 mi West 9.2 mph - N/A   Clear
3:15 AM 43.2 °F 37.9 °F 16.0 °F 33% 30.08 in 10.0 mi WSW 9.2 mph - N/A   Clear
3:35 AM 44.1 °F 39.5 °F 16.5 °F 33% 30.08 in 10.0 mi West 8.1 mph - N/A   Clear
3:55 AM 43.5 °F 38.9 °F 16.7 °F 34% 30.08 in 10.0 mi WSW 8.1 mph - N/A   Clear
4:15 AM 43.0 °F 37.2 °F 16.7 °F 35% 30.08 in 10.0 mi WSW 10.4 mph - N/A   Clear
4:35 AM 42.6 °F 36.3 °F 16.5 °F 35% 30.08 in 10.0 mi WSW 11.5 mph - N/A   Clear
4:55 AM 41.5 °F 35.4 °F 16.0 °F 36% 30.08 in 10.0 mi WSW 10.4 mph - N/A   Clear
5:15 AM 40.8 °F 34.5 °F 16.0 °F 37% 30.07 in 10.0 mi WSW 10.4 mph - N/A   Clear
5:35 AM 43.2 °F 37.9 °F 16.9 °F 35% 30.07 in 10.0 mi WSW 9.2 mph - N/A   Clear
5:55 AM 40.3 °F 37.1 °F 16.0 °F 37% 30.10 in 10.0 mi NE 4.6 mph - N/A   Clear
6:15 AM 49.3 °F - 18.7 °F 30% 30.12 in 10.0 mi NW 10.4 mph - N/A   Clear
6:35 AM 45.0 °F 41.2 °F 17.6 °F 33% 30.11 in 10.0 mi West 6.9 mph - N/A   Clear
6:55 AM 42.4 °F - 17.4 °F 37% 30.13 in 10.0 mi Calm Calm - N/A   Clear
7:55 AM 49.6 °F - 19.9 °F 31% 30.15 in 10.0 mi West 11.5 mph - N/A   Clear
8:15 AM 51.8 °F - 21.4 °F 30% 30.14 in 10.0 mi WSW 15.0 mph - N/A   Clear
8:35 AM 51.8 °F - 21.2 °F 30% 30.14 in 10.0 mi WSW 16.1 mph 21.9 mph 0.04 in Thunderstorm Thunderstorm
8:55 AM 52.9 °F - 21.2 °F 29% 30.15 in 10.0 mi West 16.1 mph 19.6 mph 0.04 in   Clear
9:15 AM 55.2 °F - 21.9 °F 27% 30.16 in - West 15.0 mph 18.4 mph N/A   Clear
9:35 AM 58.1 °F - 23.0 °F 26% 30.16 in 10.0 mi WSW 13.8 mph - N/A   Clear
9:55 AM 61.9 °F - 24.8 °F 24% 30.16 in 10.0 mi WSW 13.8 mph - N/A   Clear
10:15 AM 62.8 °F - 24.6 °F 23% 30.15 in 10.0 mi West 18.4 mph - N/A   Clear
10:35 AM 63.5 °F - 23.9 °F 22% 30.15 in 10.0 mi West 19.6 mph 24.2 mph N/A   Clear
10:55 AM 63.9 °F - 23.0 °F 21% 30.16 in 10.0 mi WNW 15.0 mph 23.0 mph N/A   Clear
11:15 AM 65.1 °F - 22.8 °F 20% 30.14 in 10.0 mi West 16.1 mph 19.6 mph N/A   Clear
11:35 AM 65.5 °F - 22.6 °F 20% 30.13 in 10.0 mi West 13.8 mph - N/A   Clear
11:55 AM 66.4 °F - 26.2 °F 22% 30.12 in 10.0 mi West 13.8 mph 24.2 mph N/A   Clear
12:15 PM 68.2 °F - 27.0 °F 21% 30.12 in 10.0 mi West 20.7 mph 25.3 mph N/A   Clear
12:35 PM 68.7 °F - 27.5 °F 21% 30.11 in 10.0 mi West 19.6 mph 25.3 mph N/A   Clear
12:55 PM 68.7 °F - 26.8 °F 21% 30.11 in 10.0 mi WSW 19.6 mph 27.6 mph N/A   Clear
1:15 PM 69.1 °F - 26.4 °F 20% 30.10 in 10.0 mi WSW 20.7 mph 26.5 mph N/A   Clear
1:35 PM 70.0 °F - 26.6 °F 20% 30.09 in 10.0 mi West 17.3 mph 27.6 mph N/A   Clear
1:55 PM 71.2 °F - 28.4 °F 20% 30.08 in 10.0 mi West 19.6 mph 26.5 mph N/A   Clear
2:15 PM 70.9 °F - 26.8 °F 19% 30.07 in 10.0 mi West 23.0 mph 26.5 mph N/A   Clear
2:35 PM 70.5 °F - 27.1 °F 20% 30.07 in 10.0 mi West 17.3 mph 28.8 mph N/A   Clear
2:55 PM 70.7 °F - 26.6 °F 19% 30.07 in 10.0 mi WSW 17.3 mph 26.5 mph N/A   Clear
3:15 PM 70.9 °F - 26.8 °F 19% 30.07 in 10.0 mi WSW 20.7 mph 26.5 mph N/A   Clear
3:35 PM 69.6 °F - 27.3 °F 21% 30.07 in 10.0 mi WSW 23.0 mph 28.8 mph N/A   Clear
3:55 PM 69.3 °F - 27.7 °F 21% 30.07 in 10.0 mi WSW 23.0 mph 28.8 mph N/A   Clear
4:15 PM 68.9 °F - 27.9 °F 22% 30.07 in 10.0 mi West 18.4 mph 25.3 mph N/A   Clear
4:35 PM 67.3 °F - 28.6 °F 23% 30.08 in 10.0 mi WSW 20.7 mph 27.6 mph N/A   Clear
4:55 PM 65.7 °F - 29.1 °F 25% 30.08 in 10.0 mi WSW 19.6 mph 26.5 mph N/A   Clear
5:15 PM 63.9 °F - 29.5 °F 27% 30.08 in 10.0 mi WSW 19.6 mph 24.2 mph N/A   Clear
5:35 PM 63.1 °F - 30.4 °F 29% 30.08 in 10.0 mi WSW 19.6 mph - N/A   Clear
5:55 PM 61.7 °F - 30.7 °F 31% 30.09 in 10.0 mi WSW 17.3 mph - N/A   Clear
6:15 PM 60.8 °F - 30.0 °F 31% 30.10 in 10.0 mi WSW 17.3 mph - N/A   Clear
6:35 PM 60.3 °F - 30.0 °F 32% 30.11 in 10.0 mi WSW 18.4 mph - N/A   Clear
6:55 PM 59.2 °F - 30.0 °F 33% 30.11 in 10.0 mi West 16.1 mph - N/A   Clear
7:15 PM 59.0 °F - 30.2 °F 34% 30.12 in 10.0 mi West 15.0 mph - N/A   Clear
7:35 PM 58.5 °F - 30.4 °F 34% 30.13 in 10.0 mi West 16.1 mph 21.9 mph N/A   Clear
7:55 PM 58.5 °F - 30.6 °F 35% 30.14 in 10.0 mi West 18.4 mph 25.3 mph N/A   Clear
8:15 PM 58.3 °F - 31.8 °F 37% 30.14 in 10.0 mi West 18.4 mph 26.5 mph N/A   Clear
8:35 PM 58.1 °F - 32.4 °F 38% 30.15 in 10.0 mi West 18.4 mph 26.5 mph N/A   Clear
8:55 PM 58.1 °F - 33.8 °F 40% 30.15 in 10.0 mi West 19.6 mph 25.3 mph N/A   Clear
9:15 PM 57.6 °F - 33.8 °F 41% 30.16 in 10.0 mi West 17.3 mph - N/A   Clear
9:35 PM 56.5 °F - 33.8 °F 42% 30.16 in 10.0 mi West 12.7 mph - N/A   Clear
9:55 PM 56.3 °F - 34.2 °F 43% 30.16 in 10.0 mi West 11.5 mph - N/A   Clear
10:15 PM 55.4 °F - 34.2 °F 45% 30.16 in 10.0 mi West 10.4 mph - N/A   Clear
10:35 PM 55.4 °F - 34.5 °F 45% 30.17 in 10.0 mi WNW 4.6 mph - N/A   Clear
11:15 PM 51.4 °F - 33.8 °F 51% 30.18 in 10.0 mi NW 8.1 mph - N/A   Clear
11:35 PM 52.7 °F - 34.0 °F 49% 30.19 in 10.0 mi NW 10.4 mph - N/A   Clear
11:55 PM 51.4 °F - 33.8 °F 51% 30.19 in 10.0 mi NW 5.8 mph - N/A   Clear